TimeEDT,TemperatureF,Dew PointF,Humidity,Sea Level PressureIn,VisibilityMPH,Wind Direction,Wind SpeedMPH,Gust SpeedMPH,PrecipitationIn,Events,Conditions,WindDirDegrees,DateUTC
12:53 AM,69.1,66.9,93,29.90,10.0,SW,3.5,-,N/A,,Scattered Clouds,220,2013-06-27 04:53:00
1:53 AM,69.1,66.0,90,29.88,10.0,SW,5.8,-,N/A,,Mostly Cloudy,230,2013-06-27 05:53:00
2:53 AM,69.1,66.0,90,29.87,9.0,SSW,5.8,-,N/A,,Mostly Cloudy,210,2013-06-27 06:53:00
3:12 AM,68.0,66.2,94,29.89,8.0,SW,5.8,-,N/A,,Mostly Cloudy,230,2013-06-27 07:12:00
3:20 AM,69.8,66.2,88,29.89,9.0,WSW,3.5,-,N/A,,Scattered Clouds,250,2013-06-27 07:20:00
3:53 AM,68.0,66.0,93,29.84,6.0,SSW,3.5,-,N/A,,Partly Cloudy,200,2013-06-27 07:53:00
4:21 AM,69.8,66.2,88,29.87,8.0,SSW,3.5,-,N/A,,Mostly Cloudy,200,2013-06-27 08:21:00
4:53 AM,69.1,66.0,90,29.83,10.0,Variable,3.5,-,N/A,,Overcast,0,2013-06-27 08:53:00
5:27 AM,69.8,66.2,88,29.85,10.0,SSW,6.9,-,N/A,,Overcast,200,2013-06-27 09:27:00
5:35 AM,69.8,66.2,88,29.85,9.0,SSW,5.8,-,N/A,,Overcast,200,2013-06-27 09:35:00
5:53 AM,70.0,66.9,90,29.82,6.0,South,5.8,-,N/A,,Overcast,190,2013-06-27 09:53:00
6:14 AM,69.8,66.2,88,29.85,5.0,SSW,5.8,-,N/A,,Overcast,210,2013-06-27 10:14:00
6:41 AM,69.8,68.0,94,29.84,2.5,SSW,5.8,-,N/A,,Overcast,200,2013-06-27 10:41:00
6:53 AM,70.0,68.0,93,29.81,2.0,South,6.9,-,N/A,,Overcast,190,2013-06-27 10:53:00
7:02 AM,69.8,68.0,94,29.83,1.8,South,5.8,-,N/A,,Overcast,190,2013-06-27 11:02:00
7:14 AM,71.6,68.0,88,29.83,2.0,Calm,Calm,-,N/A,,Overcast,0,2013-06-27 11:14:00
7:43 AM,71.6,69.8,94,29.83,3.0,SW,5.8,-,N/A,,Overcast,230,2013-06-27 11:43:00
7:53 AM,72.0,69.1,91,29.81,4.0,SW,4.6,-,N/A,,Overcast,230,2013-06-27 11:53:00
8:20 AM,73.4,69.8,88,29.83,4.0,SW,4.6,-,N/A,,Overcast,220,2013-06-27 12:20:00
8:53 AM,75.9,72.0,87,29.81,6.0,SW,8.1,-,N/A,,Overcast,220,2013-06-27 12:53:00
9:25 AM,77.0,71.6,83,29.83,8.0,SW,9.2,-,N/A,,Mostly Cloudy,230,2013-06-27 13:25:00
9:40 AM,77.0,71.6,83,29.83,9.0,WSW,6.9,-,N/A,,Mostly Cloudy,240,2013-06-27 13:40:00
9:46 AM,78.8,71.6,78,29.83,9.0,WSW,8.1,-,N/A,,Mostly Cloudy,250,2013-06-27 13:46:00
9:53 AM,77.0,72.0,84,29.80,10.0,WSW,5.8,-,N/A,,Mostly Cloudy,240,2013-06-27 13:53:00
10:05 AM,78.8,71.6,78,29.82,10.0,SW,9.2,-,N/A,,Mostly Cloudy,230,2013-06-27 14:05:00
10:53 AM,80.1,70.0,71,29.80,10.0,WSW,13.8,19.6,N/A,,Scattered Clouds,250,2013-06-27 14:53:00
11:53 AM,81.0,70.0,69,29.80,10.0,West,10.4,-,0.00,Rain,Light Rain,270,2013-06-27 15:53:00
12:53 PM,82.9,70.0,65,29.80,10.0,WSW,10.4,-,0.00,,Partly Cloudy,250,2013-06-27 16:53:00
1:53 PM,82.9,68.0,60,29.78,10.0,SW,8.1,-,N/A,,Scattered Clouds,220,2013-06-27 17:53:00
2:53 PM,84.9,68.0,57,29.76,10.0,WSW,13.8,-,N/A,,Partly Cloudy,240,2013-06-27 18:53:00
3:53 PM,86.0,71.1,61,29.73,10.0,WSW,12.7,18.4,N/A,,Partly Cloudy,240,2013-06-27 19:53:00
4:53 PM,84.9,71.1,63,29.70,10.0,SW,6.9,-,N/A,,Mostly Cloudy,220,2013-06-27 20:53:00
5:53 PM,86.0,71.1,61,29.70,10.0,WSW,11.5,-,N/A,,Scattered Clouds,240,2013-06-27 21:53:00
6:53 PM,84.9,71.1,63,29.69,10.0,WSW,11.5,-,N/A,,Clear,240,2013-06-27 22:53:00
7:53 PM,82.9,71.1,67,29.70,10.0,SW,5.8,-,N/A,,Clear,220,2013-06-27 23:53:00
8:53 PM,79.0,71.1,77,29.72,10.0,SSW,3.5,-,N/A,,Partly Cloudy,200,2013-06-28 00:53:00
9:53 PM,77.0,71.1,82,29.72,10.0,South,4.6,-,N/A,,Clear,190,2013-06-28 01:53:00
10:53 PM,75.9,70.0,82,29.72,10.0,SSW,3.5,-,N/A,,Scattered Clouds,200,2013-06-28 02:53:00
11:53 PM,75.9,70.0,82,29.72,10.0,SSW,3.5,-,N/A,,Overcast,210,2013-06-28 03:53:00